Regional Weather Roundup
Issued by NWS Sioux Falls, SD

Home | Current Version | Previous Version | Text Only | Print | Product List | Glossary On
Versions: 1 2 3 4 5 6 7 8 9 10 11 12 13 14 15 16 17 18 19 20 21 22 23 24 25 26 27 28 29 30 31 32 33 34 35 36 37 38 39 40 41 42 43 44 45 46 47 48 49 50
000
ASUS43 KFSD 200502
RWRFSD

WEATHER ROUNDUP FOR SE SOUTH DAKOTA/SW MINNESOTA/NW IOWA
NATIONAL WEATHER SERVICE SIOUX FALLS SD
1200 AM CDT WED SEP 20 2017

NOTE: "FAIR" INDICATES FEW OR NO CLOUDS BELOW 12,000 FEET WITH NO
SIGNIFICANT WEATHER AND OR OBSTRUCTIONS TO VISIBILITY.


SDZ038>040-050-052>070-200600-
SOUTHEAST SOUTH DAKOTA

CITY           SKY/WX    TMP DP  RH WIND       PRES   REMARKS
BROOKINGS      TSTM      63  57  81 NW20G35   29.61R
CHAMBERLAIN    PTCLDY    64  52  65 W15       29.61R
HURON          CLOUDY    63  54  72 NW12      29.60R
MADISON          N/A     59  59 100 NW23G44   29.61R
MITCHELL       CLOUDY    62  57  83 NW6       29.60R
SIOUX FALLS    TSTM      59  59 100 NW26G40   29.60R FOG
WINNER         FAIR      63  49  60 NW21G31   29.62S
YANKTON        TSTM      61  56  83 N22G32    29.62R
$$

MNZ071-072-080-081-089-090-097-098-200600-
SOUTHWEST MINNESOTA

CITY           SKY/WX    TMP DP  RH WIND       PRES   REMARKS
FAIRMONT       CLOUDY    72  66  81 S22G31    29.59R
JACKSON        CLOUDY    73  64  73 S22G32    29.57S
LUVERNE        CLOUDY    73  64  73 S23G32    29.47F
MARSHALL       CLOUDY    75  67  76 S29G37    29.46S
MONTEVIDEO     CLOUDY    73  66  78 S17G25    29.45F
PIPESTONE      CLOUDY    72  63  73 NW24G37   29.59R
REDWOOD FALLS  CLOUDY    73  65  75 S25G32    29.49F
TRACY          CLOUDY    75  69  81 S23G32    29.47F
WINDOM         CLOUDY    73  64  73 S24G39    29.53F
WORTHINGTON    CLOUDY    73  66  78 S22G32    29.51F
$$

IAZ001>003-012>014-020>022-031-032-NEZ013-014-SDZ071-200600-
NORTHWEST IOWA

CITY           SKY/WX    TMP DP  RH WIND       PRES   REMARKS
CHEROKEE       CLOUDY    75  69  82 S21G28    29.55F
DENISON        CLOUDY    77  68  73 S25G39    29.61S
ESTHERVILLE    CLOUDY    74  67  78 S28G38    29.57F
LE MARS        CLEAR     77  70  78 S22G32    29.50S
ORANGE CITY    CLEAR     77  72  83 S21G31    29.51F
SHELDON        CLEAR     75  68  78 S24G35    29.50F
SIOUX CITY     CLOUDY    77  70  79 S20G30    29.50F
SPENCER        PTCLDY    75  66  73 S29G39    29.55F
STORM LAKE     CLOUDY    73  68  83 S20G33    29.58F
$$

ABBREVIATIONS USED IN REMARKS
   TC - TEMPERATURE IN CELSIUS
  WCI - WIND CHILL INDEX
   HX - HEAT INDEX
  VSB - VISIBILITY





USA.gov is the U.S. government's official web portal to all federal, state and local government web resources and services.